DELTA 1 DEB, 39098

Orbit data source: Space-Track

DELTA 1 DEB, 39098 is space debris in LEO originally from a launch on Thu, 14 Jul 1977 UTC launched from the Air Force Eastern Test Range (AFETR). Debris objects in space refer to the collection of defunct objects orbiting the Earth. Examples of debris include non-operational satellites, rocket bodies, and fragments generated from explosions, collisions, or faulty payload assembly.

Loading next visibility...
Identifier
39098, 1977-065GK
Orbit
LEO
Country
Flag of USUS
Related business
Manufacturer
Unknown
Mission
Spacecraft
Bus & Motor
Unknown
Mass
Unknown
Launch date (UTC)
1977-07-14 (49 years ago)
Launch vehicle
Unknown
Launch site
Air Force Eastern Test Range (AFETR)
Object type
Payload
Rocket body
Debris
Shape & HBR
Unknown shape, 0.1 m
Radar Cross Section
Small (<0.1 m²)

Expand to show TLE details & history
Last TLE update: 1 day ago

TLE from 1 day ago
0 DELTA 1 DEB
1 39098U 77065GK  26262.12918277  .00005134  00000-0  82899-3 0  9991
2 39098  29.0329 192.9678 0516904 358.3956   1.4972 14.07670364638606
Epoch: 2026-09-19T03:06Z
TLE epoch observation values (Epoch: 2026-09-19T03:06:01.391Z)
Latitude
-0.00002°
Longitude
148.41982°
Altitude
491.467 km
Speed
7.815 km/s
True Right ascension
12h 51m 52s
True Declination
0° 00' 00"
Sunlit
Object was in daylight at epoch
Visualization orbit readout
Latitude
Unknown
Longitude
Unknown
Altitude
Unknown
Speed
Unknown
Apparent Right ascension
Unknown
Apparent Declination
Unknown
Sunlit
N/A
Visualization observer readout
Local Sidereal Time
03:41:03
Azimuth
Unknown
Elevation
Unknown
Doppler factor
Unknown
Orbital elements
Apogee altitude
1,246.034 km
Perigee altitude
496.581 km
Semi-major axis
7,249.445 km
Eccentricity
0.05169
Inclination
29.0329°
RAAN
192.9678°
Arg. of periapsis
358.3956°
True anomaly
1.66262°
Mean anomaly
1.4972°
Eccentric anomaly
1.5788°
Mean motion
3.5163 °/min
Orbital period
102.38 mins
BSTAR
0.00082899
Loading maneuver chart data...
Computing Atmospheric mass density...
Loading historical data...
Loading historical data...
Loading historical data...
Loading historical data...
Loading historical data...
Loading historical data...
Loading historical data...

Documentation

Showing up to 5 results
|